Location: Oak Glen
(34.0495°N, 116.9470°E)
Time: 00:49:05
(UTC-07:00)

Tiangong 1 - Pass Details

Date: 07 October 2017
Orbit: 292 x 319 km, 42.8° (Epoch: 23 October)

Event Time Altitude Azimuth Distance (km) Brightness Sun altitude
Rises 03:42:10 0° 271° (W) 2,032 6.9 -11.9°
Reaches altitude 10° 03:44:24 10° 288° (WNW) 1,197 4.9 -12.4°
Maximum altitude 03:46:35 22° 342° (NNW) 744 2.7 -12.8°
Enters shadow 03:48:19 13° 31° (NNE) 1,049 3.0 -13.2°
